SCP
6 6 6 7 8 8 9 11 11 10 9 7 5 3 4 4 5 5 5 5 5 4 3 2 2 2 2 1 1 1 1 1 1 1 1 1 1 1 1 1 1 1 0
6 6 6 6 7 8 9 10 10 10 10 8 7 5 5 5 6 6 6 7 6 5 4 3 3 2 2 1 1 1 1 1 1 1 1 1 1 1 1 1 1 0 0
7 7 6 6 6 7 8 9 9 10 10 10 9 8 7 7 8 8 9 9 8 7 5 4 3 3 2 1 1 1 1 1 1 1 1 1 1 1 1 1 1 0 0
8 8 7 6 6 6 7 7 8 8 8 9 9 8 8 9 9 11 12 12 11 9 7 6 4 3 2 1 1 1 1 1 1 1 1 1 1 1 1 1 1 1 0
8 8 9 8 7 6 6 6 6 6 6 6 6 7 8 9 9 10 12 13 12 10 8 6 4 2 1 1 1 1 1 1 1 1 1 1 1 1 1 1 1 1 1
7 8 9 9 9 8 7 5 4 4 5 5 5 5 6 7 7 7 9 12 13 12 9 6 3 2 1 1 1 1 1 1 1 1 1 1 1 1 1 2 2 2 1
8 11 12 10 10 9 8 6 5 4 5 6 6 6 5 5 4 4 5 8 11 11 8 5 2 2 1 1 1 1 1 1 1 1 1 1 1 1 2 2 2 2 2
12 18 20 15 11 10 8 7 5 5 5 6 7 6 5 4 3 2 2 4 7 8 7 4 3 3 2 2 2 2 2 2 1 1 1 1 1 2 2 2 2 2 2
15 21 25 22 16 11 7 6 6 5 5 6 6 5 4 3 2 1 1 3 4 6 5 4 3 3 3 2 3 3 3 2 2 1 1 1 1 1 2 3 3 3 2
16 20 24 26 23 15 8 6 6 5 4 4 4 3 3 2 2 1 1 2 3 4 5 4 4 3 3 2 2 3 3 2 2 2 1 1 1 1 2 2 3 3 3
15 19 23 26 27 22 13 8 6 5 4 3 2 2 2 1 1 1 1 1 3 4 4 5 4 3 2 1 2 3 3 2 2 2 2 1 1 1 1 2 3 3 4
14 17 22 26 29 27 20 10 6 5 3 2 1 1 1 1 1 1 0 1 2 3 3 4 3 2 1 0 1 2 2 2 2 2 2 2 2 2 1 1 2 2 3
11 13 19 26 30 29 21 10 4 3 2 1 1 1 1 1 1 1 0 0 1 1 2 2 2 1 0 0 0 1 1 1 2 3 3 3 3 3 2 2 1 1 1
9 9 12 20 25 26 20 10 3 1 1 0 0 0 0 0 0 1 1 0 0 1 1 1 1 0 0 0 1 1 1 2 2 3 3 3 4 4 4 3 2 1 1
7 6 6 8 15 22 20 11 3 1 0 0 0 0 0 0 0 1 1 0 0 0 1 1 1 1 1 1 1 2 2 2 2 2 3 3 5 6 6 4 2 1 0
5 4 3 3 9 21 20 9 2 0 0 0 0 0 0 0 0 0 0 0 0 0 0 1 1 1 1 2 2 3 3 2 2 2 2 2 4 6 6 4 2 1 0
4 3 2 2 9 21 21 9 2 0 0 0 0 0 0 0 0 0 0 0 0 0 0 0 1 1 1 1 2 3 3 3 2 2 1 1 2 4 4 3 1 1 1
3 3 2 2 7 17 20 13 4 0 0 0 0 0 0 0 0 0 0 0 0 0 0 0 0 0 1 1 2 2 3 3 2 2 1 1 1 2 2 2 1 0 0
3 2 2 2 4 9 13 11 4 0 0 0 0 0 0 0 0 0 0 0 0 0 0 0 0 0 0 0 1 1 1 1 1 1 1 1 1 1 1 1 0 0 0
3 2 2 2 2 3 4 4 1 0 0 0 0 0 0 0 0 0 0 0 0 0 0 0 0 0 0 0 0 0 0 0 0 0 0 0 0 0 0 0 0 0 0
3 2 2 2 1 1 1 0 0 0 0 0 0 0 0 0 0 0 0 0 0 0 0 0 0 0 0 0 0 0 0 0 0 0 0 0 0 0 0 0 0 0 0
3 3 2 2 1 1 1 0 0 0 0 0 0 0 0 0 0 0 0 0 0 0 0 0 0 0 0 0 0 0 0 0 0 0 0 0 0 0 0 0 0 0 0
4 4 4 3 2 1 1 1 0 0 0 0 0 0 0 0 0 0 0 0 0 0 0 0 0 0 0 0 0 0 0 0 0 0 0 0 0 0 0 0 0 0 0
5 5 5 5 3 2 1 1 0 0 0 0 0 0 0 0 0 0 0 0 0 0 0 0 0 0 0 0 0 0 0 0 0 0 0 0 0 0 0 0 0 0 0
6 7 7 7 6 4 2 1 0 0 0 0 0 0 0 0 0 0 0 0 0 0 0 0 0 0 0 0 0 0 0 0 0 0 0 0 0 0 0 0 0 0 0
6 7 8 8 7 5 2 0 0 0 0 0 0 0 0 0 0 0 0 0 0 0 0 0 0 0 0 0 0 0 0 0 0 0 0 0 0 0 0 0 0 0 0
Wind_Speed
8 7 6 6 6 5 5 5 5 4 4 4 4 4 4 3 2 2 3 2 2 3 3 3 3 2 2 2 2 2 2 3 3 3 2 2 2 2 2 2 2 3 3
8 6 6 5 5 5 5 5 5 4 4 4 4 4 4 3 3 3 3 3 3 3 3 3 3 2 2 2 2 2 3 3 3 3 2 1 2 3 2 2 2 2 2
7 7 6 5 6 5 5 4 4 4 4 4 4 4 3 3 3 3 4 3 3 3 3 3 3 2 3 2 2 3 2 2 2 2 2 1 1 1 1 2 2 2 3
7 7 7 7 6 6 5 4 4 4 4 4 4 4 4 3 3 3 3 3 3 3 3 3 3 3 4 3 3 3 2 2 1 1 2 1 1 1 1 1 2 2 2
8 7 7 6 5 5 4 4 4 4 4 4 3 3 3 3 3 3 3 3 3 3 2 2 3 3 4 3 3 2 2 2 2 2 2 1 2 1 2 2 2 2 2
8 8 6 6 5 5 5 5 4 4 3 3 4 4 4 4 4 5 4 3 3 3 3 3 3 3 2 2 3 3 4 4 3 3 2 3 4 4 3 2 2 1 2
7 7 7 7 6 6 6 5 5 5 4 4 4 4 4 5 5 5 5 4 3 4 4 3 3 2 2 2 2 3 3 3 5 5 4 5 4 4 3 3 3 3 4
7 7 7 7 6 6 5 5 5 4 4 4 3 3 3 4 5 5 5 4 3 4 4 4 4 3 2 2 2 2 2 3 4 4 4 5 4 4 5 5 5 3 2
6 6 6 7 7 6 6 5 4 4 3 3 3 3 3 3 4 4 4 2 2 2 3 2 3 3 4 3 2 2 3 4 5 5 5 5 5 5 4 2 1 1 2
5 5 6 6 6 7 7 5 4 4 4 3 2 2 3 2 3 3 3 2 1 2 2 2 3 3 3 3 3 3 4 4 3 3 3 3 3 3 4 4 4 3 2
4 4 4 4 5 5 4 4 3 3 3 3 2 1 2 2 2 2 4 2 2 1 2 2 2 3 4 4 4 4 6 5 3 3 2 2 2 2 2 3 3 4 4
4 4 3 3 3 3 4 3 3 3 3 2 2 1 0 1 1 2 4 4 3 2 2 2 2 3 3 4 3 4 5 3 1 1 2 2 2 2 3 3 3 3 4
4 4 3 3 3 3 4 4 3 3 3 2 2 1 1 1 1 1 2 2 2 2 2 3 3 4 3 2 3 3 2 2 1 2 3 3 3 3 2 2 1 1 1
4 3 3 4 3 3 2 3 3 3 3 2 2 2 1 1 1 1 0 0 1 0 1 2 3 2 1 1 1 1 1 2 2 3 3 3 2 1 1 1 1 1 1
4 3 3 3 3 3 2 2 3 3 4 5 3 3 3 2 3 3 2 1 1 1 0 1 1 2 2 2 2 2 1 1 1 2 2 2 2 2 2 1 1 1 1
4 3 3 3 3 3 3 2 3 1 2 4 4 4 3 4 3 2 2 2 1 2 2 1 0 0 1 1 1 2 2 1 2 2 2 2 2 2 2 1 1 2 2
4 3 3 3 3 3 3 3 1 2 2 0 1 2 3 3 2 1 0 0 1 3 2 0 0 1 1 1 1 1 1 2 1 1 1 2 2 2 2 1 1 2 2
3 3 3 3 3 3 3 3 3 2 1 1 2 0 1 2 2 1 1 3 2 2 1 0 0 1 1 1 1 1 1 1 1 1 1 2 2 2 2 2 2 2 3
3 2 2 2 2 2 2 2 2 2 2 1 0 1 1 1 1 1 3 2 1 1 1 1 1 1 1 1 1 1 1 1 1 1 1 2 2 1 2 2 2 3 3
2 3 3 3 2 2 2 2 2 2 2 1 1 1 0 2 1 0 1 1 1 1 1 1 1 0 0 0 1 1 1 1 1 1 1 1 1 1 1 2 2 2 2
2 3 4 3 2 2 2 2 2 2 2 2 2 2 3 2 2 2 2 2 2 2 2 1 1 1 0 0 0 1 1 1 1 1 2 2 2 1 1 2 2 2 2
3 2 2 2 2 2 2 2 2 2 3 3 2 1 3 2 2 1 1 2 2 2 2 2 1 1 1 1 0 1 1 0 1 2 2 2 2 2 2 1 1 1 1
2 2 2 2 2 2 2 1 2 2 3 3 3 2 2 2 2 2 2 1 1 1 1 1 1 1 0 1 1 1 1 0 1 1 2 2 2 2 2 2 2 2 2
3 3 2 2 2 1 1 1 1 2 2 2 2 2 2 2 2 1 1 1 1 1 0 1 1 1 1 1 1 1 1 1 1 1 2 2 2 2 2 2 2 2 3
3 2 2 2 2 1 1 1 1 1 1 1 1 1 1 1 1 1 1 0 0 0 0 1 1 2 3 3 2 2 2 3 2 2 2 2 2 3 2 3 2 3 3
3 3 2 2 1 1 2 2 1 1 1 1 1 1 1 1 1 0 0 1 1 1 2 2 3 3 3 2 2 2 2 3 3 3 2 2 2 2 3 2 3 3 3
Wind_Direction
179 180 182 183 183 175 177 181 183 184 183 183 179 188 198 205 198 187 202 203 215 231 225 214 227 217 219 229 215 205 205 191 223 258 241 252 237 260 276 266 253 239 240
179 175 179 177 176 179 185 186 183 184 184 183 176 182 198 201 196 197 210 209 207 225 230 223 237 226 222 224 214 217 217 208 202 243 258 244 238 240 248 269 272 256 247
176 176 178 176 178 185 189 188 184 183 187 188 181 184 197 200 198 206 206 204 207 222 225 221 231 221 234 236 228 227 225 224 204 216 251 245 250 251 272 284 280 286 270
172 175 181 187 187 189 188 184 184 182 185 191 193 193 197 196 195 204 207 205 211 221 222 219 225 220 227 230 230 231 224 221 214 212 245 261 260 261 202 258 291 287 274
170 176 187 187 182 179 179 183 183 185 191 194 194 203 205 204 205 199 210 212 210 221 231 233 236 229 223 222 224 223 218 215 212 216 238 244 253 240 231 231 249 273 280
174 183 185 177 177 180 185 183 181 191 197 190 200 208 213 222 219 207 200 214 210 213 227 242 246 229 230 242 242 224 205 204 213 214 228 229 236 229 224 222 219 237 272
177 183 182 182 185 189 187 180 187 194 196 202 209 208 217 228 220 212 213 207 214 220 225 228 240 240 212 236 272 272 252 232 206 199 217 232 231 223 212 223 221 220 232
180 184 182 180 185 186 181 186 192 188 193 201 206 211 219 232 226 224 221 211 215 225 227 217 217 224 224 215 239 266 267 257 233 211 215 232 234 227 208 210 218 228 259
181 185 185 181 181 182 185 191 190 183 191 197 197 201 217 245 237 221 207 207 227 239 236 219 204 211 231 214 202 234 266 271 259 246 242 246 250 247 218 183 191 183 251
188 189 185 179 179 186 191 191 189 182 188 189 193 201 208 233 240 215 180 177 220 259 263 249 230 224 235 212 201 213 245 261 273 290 290 283 265 257 225 199 193 194 211
184 177 174 178 182 183 184 183 174 174 171 175 174 190 204 218 229 184 162 162 192 220 255 267 262 247 250 239 217 222 237 243 246 239 253 272 279 270 245 228 206 194 199
165 163 169 176 179 170 164 168 161 159 159 164 154 146 269 263 223 188 171 179 184 179 236 255 259 265 266 259 237 241 242 231 231 232 236 249 254 256 255 242 231 224 218
147 154 160 154 155 158 160 160 149 150 158 165 161 170 232 287 270 222 187 188 188 181 231 263 270 261 267 274 266 247 229 212 211 232 240 243 243 248 254 260 259 254 265
135 149 153 148 150 146 151 160 156 161 161 159 168 183 208 263 269 287 304 110 98 52 298 294 295 291 270 280 306 283 235 209 206 228 242 248 252 255 252 235 232 242 281
127 137 140 141 140 134 131 154 165 181 179 175 190 193 190 228 251 233 203 213 224 230 307 21 19 10 5 348 340 328 298 281 252 253 246 251 255 252 256 245 212 192 212
123 131 142 146 142 136 124 73 40 100 155 186 196 193 204 213 222 223 215 229 224 169 120 92 29 320 282 285 293 306 304 278 263 257 250 240 242 244 257 270 227 207 221
136 144 145 143 139 137 142 143 131 14 28 78 201 199 192 191 191 211 257 116 114 121 111 121 195 278 281 279 271 269 278 273 254 247 254 255 254 250 243 247 245 243 245
130 134 137 145 146 150 157 166 166 169 167 353 359 346 187 177 182 195 102 91 67 78 116 173 272 292 288 278 263 257 272 288 270 242 248 254 256 258 257 254 250 248 253
129 134 132 133 142 149 147 143 143 145 144 143 68 358 9 100 119 113 119 114 154 214 245 259 268 282 293 295 294 286 281 312 325 260 249 257 252 245 255 256 255 257 250
132 134 131 132 137 138 140 147 154 155 152 152 165 211 81 89 96 105 167 196 197 210 218 235 255 273 300 343 348 5 9 4 360 330 284 283 282 258 250 261 256 256 256
141 142 135 135 148 154 154 167 171 163 166 177 199 199 164 157 180 194 205 215 214 219 220 223 228 235 262 6 29 41 35 14 356 341 328 317 309 285 261 250 256 254 257
143 144 153 161 159 155 165 176 176 174 179 182 192 189 182 171 178 192 220 231 228 222 209 206 231 239 220 183 134 98 80 27 347 337 326 323 324 318 307 295 283 269 259
140 141 142 149 160 163 168 181 184 182 181 177 173 173 180 194 199 202 215 234 242 238 220 170 192 290 358 79 102 133 138 256 291 301 312 311 315 317 312 305 295 277 270
140 145 145 142 140 146 157 180 177 169 166 170 172 177 181 188 191 200 211 219 234 253 223 144 122 107 80 67 55 43 29 360 342 315 292 285 294 304 310 308 300 282 273
134 134 134 137 136 136 148 150 146 150 153 152 154 153 154 160 178 211 232 215 129 46 49 87 93 98 94 83 68 35 8 4 351 336 316 297 295 299 300 298 298 294 287
137 135 143 156 160 156 159 160 150 148 154 148 137 138 148 164 180 181 125 82 68 61 53 60 79 90 83 70 59 39 11 354 338 323 309 294 297 300 306 297 296 297 291